Weather History for KALX - March, 2013

Change the Weather History Date:

Saturday, March 30, 2013

  Actual Average (KAUO) Record (KAUO)
Temperature  
Mean Temperature 62 °F -  
Max Temperature 74 °F - 84 °F (1985)
Min Temperature 49 °F - 26 °F (1964)
Degree Days  
Heating Degree Days 4    
Month to date heating degree days  
Since 1 July heating degree days  
Cooling Degree Days 0    
Month to date cooling degree days  
Year to date cooling degree days  
Growing Degree Days 12 (Base 50)    
Moisture  
Dew Point 50 °F    
Average Humidity 63    
Maximum Humidity 90    
Minimum Humidity 36    
Precipitation  
Precipitation 0.07 in - 2.32 in (1960)
Month to date precipitation  
Year to date precipitation  
Sea Level Pressure  
Sea Level Pressure 30.11 in    
Wind  
Wind Speed 4 mph (SW)    
Max Wind Speed 15 mph    
Max Gust Speed 18 mph    
Visibility 9 miles    
Events Rain    
T = Trace of Precipitation, MM = Missing Value Source: NWS Daily Summary

Daily Weather History Graph

Daily Weather History Graph

Search for Another Location

Airport or City:

Trip Planner

Search our weather history database for the weather conditions in past years. The results will help you decide how hot, cold, wet, or windy it might be!

Date:

Astronomy

Mar. 30, 2013 Rise Set
Actual Time 6:34 AM CDT 7:02 PM CDT
Civil Twilight 6:09 AM CDT 7:27 PM CDT
Nautical Twilight 5:40 AM CDT 7:56 PM CDT
Astronomical Twilight 5:10 AM CDT 8:26 PM CDT
Moon 10:55 PM CDT (3/30) 8:40 AM CDT (3/30)
Length of Visible Light 13h 18m
Length of Day
12h 28m
Waning Gibbous, 86% of the Moon is Illuminated
Mar 30
Waning Gibbous
Apr 2
Last Quarter
Apr 10
New
Apr 18
First Quarter
Apr 25
Full

Hourly Weather History & Observations

Time (CDT) Temp. Dew Point Humidity Pressure Visibility Wind Dir Wind Speed Gust Speed Precip Events Conditions
12:15 AM 63.0 °F 36.7 °F 38% 30.19 in 10.0 mi SW 6.9 mph - N/A   Overcast
12:35 AM 62.6 °F 36.5 °F 38% 30.19 in 10.0 mi SW 4.6 mph - N/A   Mostly Cloudy
12:55 AM 62.2 °F 37.6 °F 40% 30.19 in 10.0 mi SW 4.6 mph - N/A   Mostly Cloudy
1:15 AM 62.2 °F 38.3 °F 41% 30.19 in 10.0 mi SW 5.8 mph - N/A   Scattered Clouds
1:35 AM 61.0 °F 38.3 °F 43% 30.18 in 10.0 mi SW 5.8 mph - N/A   Scattered Clouds
1:55 AM 60.6 °F 39.9 °F 46% 30.18 in 10.0 mi SW 5.8 mph - N/A   Scattered Clouds
2:15 AM 59.9 °F 40.3 °F 48% 30.18 in 10.0 mi SW 3.5 mph - N/A   Mostly Cloudy
2:35 AM 59.9 °F 41.9 °F 51% 30.17 in 10.0 mi SSW 5.8 mph - N/A   Overcast
2:55 AM 59.9 °F 42.3 °F 52% 30.17 in 10.0 mi SW 4.6 mph - N/A   Overcast
3:15 AM 59.9 °F 42.3 °F 52% 30.16 in 10.0 mi SW 4.6 mph - N/A   Overcast
3:35 AM 59.9 °F 44.1 °F 56% 30.16 in 10.0 mi SSW 3.5 mph - N/A   Overcast
3:55 AM 59.9 °F 45.0 °F 58% 30.16 in 10.0 mi Calm Calm - N/A   Mostly Cloudy
4:15 AM 57.2 °F 44.6 °F 63% 30.16 in 10.0 mi SW 3.5 mph - N/A   Mostly Cloudy
4:35 AM 57.2 °F 43.9 °F 61% 30.16 in 10.0 mi Calm Calm - N/A   Mostly Cloudy
4:55 AM 57.2 °F 46.4 °F 67% 30.16 in 10.0 mi Calm Calm - N/A   Mostly Cloudy
5:15 AM 54.7 °F 45.5 °F 71% 30.16 in 10.0 mi Calm Calm - N/A   Mostly Cloudy
5:35 AM 54.7 °F 48.4 °F 79% 30.16 in 10.0 mi Calm Calm - N/A   Mostly Cloudy
5:55 AM 54.7 °F 48.9 °F 81% 30.16 in 10.0 mi Calm Calm - N/A   Scattered Clouds
6:15 AM 52.9 °F 46.2 °F 78% 30.16 in 10.0 mi Calm Calm - N/A   Clear
6:35 AM 50.7 °F 45.5 °F 82% 30.17 in 10.0 mi Calm Calm - N/A   Clear
6:55 AM 49.6 °F 45.1 °F 84% 30.17 in 10.0 mi Calm Calm - N/A   Clear
7:15 AM 49.6 °F 44.6 °F 83% 30.18 in 10.0 mi Calm Calm - N/A   Clear
7:35 AM 54.7 °F 50.4 °F 85% 30.18 in 10.0 mi Calm Calm - N/A   Clear
7:55 AM 54.7 °F 48.4 °F 79% 30.18 in 10.0 mi Calm Calm - N/A   Clear
8:15 AM 57.2 °F 49.1 °F 74% 30.19 in 10.0 mi SSW 3.5 mph - N/A   Clear
8:35 AM 59.9 °F 49.8 °F 69% 30.19 in 10.0 mi WSW 4.6 mph - N/A   Scattered Clouds
8:55 AM 59.9 °F 49.1 °F 67% 30.19 in 10.0 mi WSW 5.8 mph - N/A   Mostly Cloudy
9:15 AM 61.0 °F 50.0 °F 67% 30.19 in 10.0 mi SW 3.5 mph - N/A   Mostly Cloudy
9:35 AM 62.2 °F 50.5 °F 65% 30.18 in 10.0 mi SW 4.6 mph - N/A   Scattered Clouds
9:55 AM 62.4 °F 50.2 °F 64% 30.18 in 10.0 mi SSW 3.5 mph - N/A   Scattered Clouds
10:15 AM 66.7 °F 51.4 °F 58% 30.17 in 10.0 mi SSW 3.5 mph - N/A   Scattered Clouds
10:35 AM 67.6 °F 50.5 °F 54% 30.16 in 10.0 mi Calm Calm - N/A   Clear
10:55 AM 69.8 °F 48.9 °F 47% 30.16 in 10.0 mi SSW 6.9 mph - N/A   Clear
11:15 AM 70.9 °F 50.0 °F 48% 30.16 in 10.0 mi West 5.8 mph - N/A   Clear
11:35 AM 72.3 °F 50.5 °F 46% 30.15 in 10.0 mi South 4.6 mph - N/A   Clear
11:55 AM 74.8 °F 52.2 °F 45% 30.14 in 10.0 mi SSE 4.6 mph - N/A   Clear
12:15 PM 74.8 °F 51.8 °F 44% 30.13 in 10.0 mi SSE 6.9 mph - N/A   Scattered Clouds
12:35 PM 74.8 °F 50.2 °F 42% 30.13 in 10.0 mi SSW 15.0 mph - N/A   Mostly Cloudy
12:55 PM 74.8 °F 48.7 °F 40% 30.12 in 10.0 mi WSW 8.1 mph - N/A   Scattered Clouds
1:15 PM 74.8 °F 47.1 °F 37% 30.11 in 10.0 mi SW 10.4 mph - N/A   Scattered Clouds
1:35 PM 74.8 °F 47.5 °F 38% - 10.0 mi WSW 10.4 mph - N/A   Scattered Clouds
1:55 PM 74.8 °F 49.1 °F 40% 30.09 in 10.0 mi South 6.9 mph - N/A   Scattered Clouds
2:15 PM 74.8 °F 47.7 °F 38% 30.09 in 10.0 mi SSW 8.1 mph - N/A   Scattered Clouds
2:35 PM 74.8 °F 49.1 °F 40% 30.08 in 10.0 mi SSW 10.4 mph - N/A   Scattered Clouds
2:55 PM 74.8 °F 48.4 °F 39% 30.07 in 10.0 mi SSW 6.9 mph - N/A   Scattered Clouds
3:15 PM 74.8 °F 48.0 °F 39% 30.06 in 10.0 mi SSW 8.1 mph - N/A   Scattered Clouds
3:35 PM 74.8 °F 46.4 °F 36% 30.06 in 10.0 mi SW 11.5 mph - N/A   Scattered Clouds
3:55 PM 74.8 °F 47.7 °F 38% 30.06 in 10.0 mi SW 11.5 mph 18.4 mph N/A   Scattered Clouds
4:15 PM 74.8 °F 48.2 °F 39% 30.05 in 10.0 mi SW 9.2 mph 16.1 mph N/A   Scattered Clouds
4:35 PM 74.8 °F 49.1 °F 40% 30.04 in 10.0 mi SSW 8.1 mph - N/A   Scattered Clouds
4:55 PM 74.8 °F 48.7 °F 40% 30.03 in 10.0 mi SSW 8.1 mph - N/A   Scattered Clouds
5:15 PM 74.8 °F 49.5 °F 41% 30.03 in 10.0 mi SSW 6.9 mph - N/A   Scattered Clouds
5:35 PM 74.8 °F 50.7 °F 43% 30.03 in 10.0 mi SSW 8.1 mph - N/A Rain Light Rain
5:55 PM 69.6 °F 57.0 °F 64% 30.04 in 7.0 mi WSW 9.2 mph - 0.01 in Rain Heavy Rain
6:15 PM 63.9 °F 58.1 °F 81% 30.04 in 10.0 mi Calm Calm - 0.02 in   Mostly Cloudy
6:35 PM 62.8 °F 59.0 °F 87% 30.03 in 10.0 mi Calm Calm - 0.03 in   Mostly Cloudy
6:55 PM 62.6 °F 58.3 °F 86% 30.03 in 10.0 mi Calm Calm - 0.03 in Rain Light Rain
7:15 PM 62.2 °F 58.6 °F 88% 30.04 in 7.0 mi Calm Calm - 0.01 in Rain Light Rain
7:35 PM 62.1 °F 58.8 °F 89% 30.04 in 7.0 mi Calm Calm - 0.01 in Rain Light Rain
7:55 PM 61.7 °F 58.5 °F 89% 30.04 in 5.0 mi Calm Calm - 0.01 in Rain Light Rain
8:15 PM 61.0 °F 57.9 °F 90% 30.03 in 3.0 mi Calm Calm - 0.01 in Rain Rain
8:35 PM 61.0 °F 58.1 °F 90% 30.03 in 2.5 mi Calm Calm - 0.01 in   Scattered Clouds
8:55 PM 61.0 °F 58.1 °F 90% 30.03 in 4.0 mi Calm Calm - 0.01 in   Scattered Clouds
9:15 PM 61.0 °F 58.1 °F 90% 30.03 in 5.0 mi Calm Calm - N/A Rain Light Rain
9:35 PM 61.0 °F 58.1 °F 90% 30.05 in 7.0 mi NW 6.9 mph - 0.01 in   Mostly Cloudy
9:55 PM 61.0 °F 57.9 °F 90% 30.05 in 10.0 mi North 3.5 mph - 0.01 in Rain Light Rain
10:15 PM 61.0 °F 57.6 °F 88% 30.05 in 10.0 mi Calm Calm - N/A   Scattered Clouds
10:35 PM 61.0 °F 57.7 °F 89% 30.04 in 4.0 mi Calm Calm - N/A Rain Light Rain
10:55 PM 61.0 °F 58.1 °F 90% 30.04 in 2.5 mi Calm Calm - N/A   Scattered Clouds
11:15 PM 59.9 °F 56.7 °F 89% 30.03 in 2.5 mi Calm Calm - N/A   Clear
11:35 PM 59.9 °F 56.8 °F 90% 30.03 in 1.5 mi Calm Calm - N/A   Mostly Cloudy
11:55 PM 59.9 °F 56.8 °F 90% 30.03 in 1.5 mi Calm Calm - N/A Rain Light Rain